This demonstration page uses our WeatherBlox Daily Observations layout. Learn more.

Left ArrowRight Arrow

53.62937, 11.41316

Hourly Observations for February 21, 2019

Temp ( °F °C ) Dew Point ( °F °C ) Humidity (%) Winds ( mph kmh ) Pressure ( in mb ) Visibility ( mi km ) Precip ( " mm )
12:20 am 00:20 Mostly Cloudy 45 7 39 4 81 81 SW 7 11 30.15 1021 30 48 N/A
1:20 am 01:20 Mostly Cloudy with Light Rain 45 7 39 4 81 81 WSW 8 13 30.12 1020 30 48 N/A
2:20 am 02:20 Mostly Cloudy with Light Rain 45 7 39 4 81 81 WSW 8 13 30.12 1020 30 48 N/A
3:20 am 03:20 Mostly Cloudy with Light Rain 46 8 39 4 76 76 WSW 10 17 30.12 1020 30 48 N/A
4:20 am 04:20 Mostly Cloudy with Drizzle 45 7 39 4 81 81 WSW 12 19 30.12 1020 4 7 N/A
5:20 am 05:20 Cloudy with Drizzle 45 7 41 5 87 87 WSW 8 13 30.12 1020 4 7 N/A
6:20 am 06:20 Cloudy with Drizzle 43 6 41 5 93 93 WSW 8 13 30.13 1020 4 6 N/A
7:20 am 07:20 Cloudy with Drizzle 43 6 41 5 93 93 WSW 10 17 30.13 1020 3 5 N/A
7:44 am 07:44 Cloudy with Drizzle 43 6 41 5 93 93 WSW 8 13 30.13 1020 3 5 N/A
8:20 am 08:20 Cloudy with Drizzle 43 6 41 5 93 93 WSW 8 13 30.13 1020 3 5 N/A
8:43 am 08:43 Mostly Cloudy with Mist and Fog 43 6 41 5 93 93 WSW 9 15 30.13 1020 3 5 N/A
9:20 am 09:20 Mostly Cloudy 45 7 41 5 87 87 WSW 9 15 30.12 1020 4 6 N/A
10:20 am 10:20 Mostly Cloudy 46 8 41 5 82 82 WSW 13 20 30.12 1020 4 7 N/A
10:42 am 10:42 Mostly Cloudy 46 8 43 6 87 87 WSW 14 22 30.12 1020 5 8 N/A
11:06 am 11:06 Mostly Cloudy 46 8 43 6 87 87 WSW 14 22 30.12 1020 6 9 N/A
11:20 am 11:20 Mostly Cloudy 46 8 43 6 87 87 W 13 20 30.12 1020 30 48 N/A
12:20 pm 12:20 Mostly Cloudy 48 9 43 6 82 82 W 12 19 30.12 1020 30 48 N/A
12:39 pm 12:39 Mostly Cloudy 48 9 43 6 82 82 W 10 17 30.12 1020 30 48 N/A
1:07 pm 13:07 Mostly Cloudy with Drizzle 48 9 43 6 82 82 W 9 15 30.12 1020 4 7 N/A
1:20 pm 13:20 Mostly Cloudy with Drizzle 48 9 43 6 82 82 W 9 15 30.12 1020 3 5 N/A
1:48 pm 13:48 Mostly Cloudy with Drizzle 46 8 45 7 93 93 W 9 15 30.12 1020 3 5 N/A
2:20 pm 14:20 Mostly Cloudy with Drizzle 46 8 45 7 93 93 W 10 17 30.12 1020 3 5 N/A
2:31 pm 14:31 Mostly Cloudy with Drizzle 46 8 45 7 93 93 WNW 9 15 30.15 1021 2 4 N/A
3:20 pm 15:20 Cloudy with Drizzle 46 8 45 7 93 93 W 9 15 30.15 1021 2 4 N/A
4:20 pm 16:20 Cloudy with Mist and Fog 46 8 45 7 93 93 W 14 22 30.15 1021 3 5 N/A
5:20 pm 17:20 Mostly Cloudy with Mist and Fog 46 8 45 7 93 93 W 15 24 30.15 1021 3 5 N/A
6:20 pm 18:20 Mostly Cloudy 46 8 45 7 93 93 W 15 24 30.15 1021 4 6 N/A
7:20 pm 19:20 Mostly Cloudy 46 8 45 7 93 93 W 14 22 30.18 1022 4 6 N/A
7:29 pm 19:29 Mostly Cloudy with Drizzle 46 8 45 7 93 93 WNW 14 22 30.18 1022 2 4 N/A
7:59 pm 19:59 Mostly Cloudy with Mist and Fog 45 7 45 7 100 100 W 14 22 30.18 1022 3 5 N/A
8:20 pm 20:20 Mostly Cloudy 45 7 45 7 100 100 W 14 22 30.18 1022 4 6 N/A
9:20 pm 21:20 Mostly Cloudy with Drizzle 45 7 45 7 100 100 WNW 16 26 30.21 1023 2 3 N/A
10:20 pm 22:20 Cloudy with Drizzle 45 7 45 7 100 100 NW 16 26 30.21 1023 2 3 N/A
10:41 pm 22:41 Mostly Cloudy with Drizzle 45 7 43 6 93 93 NW 13 20 30.24 1024 2 4 N/A
11:20 pm 23:20 Mostly Cloudy with Drizzle 45 7 43 6 93 93 NW 12 19 30.24 1024 2 3 N/A
11:49 pm 23:49 Mostly Cloudy with Mist and Fog 45 7 43 6 93 93 NW 12 19 30.27 1025 2 4 N/A

Powered by AerisWeather